Regional Weather Roundup
Issued by NWS

Home | Current Version | Previous Version | Text Only | Print | Product List | Glossary Off
Versions: 1 2 3 4 5 6 7 8 9 10 11 12 13 14 15 16 17 18 19 20 21 22 23 24 25 26 27 28 29 30 31 32 33 34 35 36 37 38 39 40 41 42 43 44 45 46 47 48 49 50

278
ASUS43 KMPX 301501
RWRMN
WEATHER ROUNDUP FOR MINNESOTA
NATIONAL WEATHER SERVICE TWIN CITIES/CHANHASSEN MN
1000 AM CDT SAT JUL 30 2016


NOTE: "FAIR" INDICATES FEW OR NO CLOUDS BELOW 12,000 FEET WITH NO
SIGNIFICANT WEATHER AND/OR OBSTRUCTIONS TO VISIBILITY. N/A MEANS
CURRENT SKY AND/OR WEATHER CONDITIONS ARE NOT AVAILABLE.

MNZ060>063-068>070-301600-
   Twin Cities Metro

CITY           SKY/WX    TMP DP  RH WIND       PRES   REMARKS
TWIN CITIES    CLOUDY    71  63  75 SE6       30.04R
ST PAUL        CLOUDY    73  65  75 SE5       30.04S
CRYSTAL        CLOUDY    72  62  71 E5        30.03R
BLAINE         PTSUNNY   73  66  78 E7        30.04S
LAKEVILLE      CLOUDY    70  66  88 E5        30.04S
EDEN PRAIRIE   CLOUDY    72  63  73 E5        30.03R
LAKEVILLE      CLOUDY    70  66  88 E5        30.04S
SOUTH ST PAUL  CLOUDY    71  63  76 S3        30.04R
LAKE ELMO      PTSUNNY   73  64  73 E6        30.05S
$$
MNZ001>005-007-008-013>017-022>024-027-028-301600-
   Northwest Minnesota

CITY           SKY/WX    TMP DP  RH WIND       PRES   REMARKS
BEMIDJI        PTSUNNY   71  61  70 SW6       30.04S
HALLOCK        PTSUNNY   70  64  83 S9        29.93F
ROSEAU         MOSUNNY   72  64  78 S8        29.98F
WARROAD        MOSUNNY   70  64  83 SW5       29.99S
THIEF RVR FALL LGT RAIN  66  63  90 CALM      30.01S
CROOKSTON      MOSUNNY   70  64  83 SE8       29.99S
FOSSTON        CLOUDY    66  63  88 SE6       30.02S
DETROIT LAKES  CLOUDY    68  61  77 S6        30.04R
MOORHEAD       MOSUNNY   73  63  68 S7        30.00R
PARK RAPIDS    CLOUDY    70  59  68 S5        30.05R
MAHNOMEN       PTSUNNY   67  62  83 SE6       30.02S
$$
MNZ006-009>011-018-025>026-301600-
   North Central Minnesota

CITY           SKY/WX    TMP DP  RH WIND       PRES   REMARKS
BAUDETTE       SUNNY     73  64  73 S9        30.00S
FLAG ISLAND    SUNNY     73  63  68 S8        29.98S
INTL FALLS     SUNNY     71  57  61 CALM      30.04S
WASKISH        MOSUNNY   73  61  64 S6        30.02F
BIG FORK       SUNNY     72  59  64 S7        30.05F
LONGVILLE      MOSUNNY   72  61  68 SE3       30.05S
GRAND RAPIDS   SUNNY     68  58  70 VRB3      30.08F
ORR            SUNNY     70  52  52 CALM      30.04F
COOK           SUNNY     70  54  56 S3        30.07S
WALKER         FAIR      70  59  67 SW5       30.04F
$$
MNZ012-019>021-037-301600-
   Northeast Minnesota

CITY           SKY/WX    TMP DP  RH WIND       PRES   REMARKS
DULUTH         SUNNY     67  59  75 E7        30.07F
ELY            MOSUNNY   70  54  56 CALM      30.08S
HIBBING        SUNNY     65  55  70 SE5       30.07F
EVELETH        CLOUDY    65  55  68 CALM      30.08F
DULUTH HARBOR  PTSUNNY   64  61  88 NE5       30.07F
TWO HARBORS    CLOUDY    72  61  68 E6        30.06S
SILVER BAY     CLOUDY    70  55  60 NE6       30.07S
GRAND MARAIS     N/A     66  56  70 E8        30.08S
G MARAIS ARPRT SUNNY     68  48  49 E6        30.12S
$$
MNZ029>031-032-039>041-046>048-054>057-064-301600-
   West Central Minnesota

CITY           SKY/WX    TMP DP  RH WIND       PRES   REMARKS
FERGUS FALLS   PTSUNNY   73  61  64 S10       30.03S
WHEATON        MOSUNNY   73  64  73 S5        30.02S
MORRIS         SUNNY     73  57  56 S9        30.02S
ALEXANDRIA     SUNNY     71  54  54 S9        30.05F
ELBOW LAKE     CLOUDY    71  61  71 SE8       30.03S
WADENA         MOSUNNY   70  57  64 S7        30.04S
GLENWOOD       SUNNY     72  57  60 SE6       30.05F
APPLETON       SUNNY     72  61  68 SE6       30.02S
BENSON         SUNNY     72  55  56 S5        30.04R
ORTONVILLE     SUNNY     72  59  64 CALM      30.02S
MADISON        SUNNY     72  61  68 S3        30.02F
WILLMAR        FAIR      72  61  68 CALM      30.05F
$$
MNZ033>034-036-042>043-049>051-058-059-301600-
   Central Minnesota

CITY           SKY/WX    TMP DP  RH WIND       PRES   REMARKS
ST CLOUD       SUNNY     71  62  73 NE3       30.04S
SAUK CENTRE    FAIR      71  57  62 SE3       30.05F
PAYNESVILLE    SUNNY     72  54  53 SE5       30.05S
AITKIN         SUNNY     73  55  53 CALM      30.04S
PINE RIVER     SUNNY     72  59  64 SE3       30.08S
BRAINERD       SUNNY     70  57  63 CALM      30.05F
STAPLES        SUNNY     70  57  64 SW6       30.05S
LONG PRAIRIE   FAIR      70  55  60 E3        30.05F
LITTLE FALLS   SUNNY     70  55  60 SE5       30.05S
LITCHFIELD     SUNNY     73  61  64 CALM      30.05S
BUFFALO        SUNNY     70  61  72 CALM      30.05S
MAPLE LAKE     SUNNY     72  63  74 E3        30.05S
HUTCHINSON     PTSUNNY   73  62  68 E3        30.05S
$$
MNZ037-044-045-052-053-301600-
   East Central Minnesota

CITY           SKY/WX    TMP DP  RH WIND       PRES   REMARKS
PRINCETON      MOSUNNY   70  63  78 E3        30.05R
MORA           SUNNY     70  63  78 S3        30.07S
CAMBRIDGE      CLOUDY    72  61  68 CALM      30.03S
RUSH CITY      PTSUNNY   69  63  80 SE3       30.05F
MOOSE LAKE     SUNNY     66  59  77 CALM      30.05S
HINCKLEY       PTSUNNY   68  63  83 CALM      30.06S
CLOQUET        SUNNY     66  57  72 E3        30.07S
MCGREGOR       SUNNY     70  59  68 CALM      30.06F
$$
MNZ071>073-080-081-089-090-097-098-301600-
   Southwest Minnesota

CITY           SKY/WX    TMP DP  RH WIND       PRES   REMARKS
MONTEVIDEO     SUNNY     75  63  64 SW3       30.05S
GRANITE FALLS  SUNNY     72  59  64 SE3       30.05F
CANBY          SUNNY     74  57  54 S5        30.04S
MARSHALL       SUNNY     73  58  59 S5        30.04F
REDWOOD FALLS  SUNNY     71  57  61 CALM      30.04S
OLIVIA         SUNNY     70  57  64 CALM      30.04S
PIPESTONE      SUNNY     70  61  73 S5        30.05F
WINDOM         SUNNY     72  54  53 CALM      30.05S
WORTHINGTON    SUNNY     71  53  52 CALM      30.06F
JACKSON        SUNNY     70  54  56 CALM      30.06S
TRACY          SUNNY     72  58  60 SW3       30.05S
SLAYTON        SUNNY     70  55  58 S3        30.06F
$$
MNZ065>067-074>077-082>085-091>093-301600-
   South Central Minnesota

CITY           SKY/WX    TMP DP  RH WIND       PRES   REMARKS
MANKATO        MOSUNNY   72  59  64 CALM      30.03F
NEW ULM        SUNNY     70  57  64 CALM      30.04S
ST JAMES       SUNNY     66  54  63 CALM      30.05S
FAIRMONT       SUNNY     72  55  56 CALM      30.03F
GLENCOE        SUNNY     73  63  72 CALM      30.03S
FARIBAULT      CLOUDY    72  64  78 SE3       30.04S
OWATONNA       MOSUNNY   73  63  68 SE3       30.04S
WASECA         CLOUDY    72  66  83 E3        30.05S
ALBERT LEA     MOSUNNY   72  64  78 CALM      30.04S
$$
MNZ078>079-086>088-094>096-301600-
   Southeast Minnesota

CITY           SKY/WX    TMP DP  RH WIND       PRES   REMARKS
ROCHESTER      MOSUNNY   72  64  76 SE6       30.05S
RED WING       SUNNY     73  63  68 SE6       30.02
STANTON        CLOUDY    72  64  78 CALM      30.03S
DODGE CENTER   CLOUDY    75  64  69 E5        30.05S
WINONA         SUNNY     73  61  64 SE6       30.03F
AUSTIN         CLOUDY    72  64  78 CALM      30.03F
PRESTON        SUNNY     70  61  72 CALM      30.05S
$$
ABBREVIATIONS USED IN REMARKS
   TC - TEMPERATURES IN CELSIUS
  WCI - WIND CHILL INDEX
   HX - HEAT INDEX
  VSB - VISIBILITY
$$




USA.gov is the U.S. government's official web portal to all federal, state and local government web resources and services.